Location: New Town
(33.2710°N, 90.7534°W)
Time: 13:25:06
(UTC+00:00)

Explorer 11/Cluster Stage 4 - Pass Details

Date: 16 May 2021
Orbit: 467 x 1257 km, 28.8° (Epoch: 14 June)

Event Time Altitude Azimuth Distance (km) Brightness Sun altitude
Rises 01:21:19 0° 244° (WSW) 3,937 10.8 -5.5°
Reaches altitude 10° 01:24:04 10° 240° (WSW) 3,061 10.1 -6.1°
Maximum altitude 01:31:37 53° 166° (SSE) 1,492 7.8 -7.4°
Drops below altitude 10° 01:39:34 10° 93° (E) 3,214 9.2 -8.9°
Enters shadow 01:40:49 - 91° (E) 3,606 9.4 -9.1°
Sets 01:42:31 0° 89° (E) 4,145 - -9.4°
